When you browse on this site, cookies collect data to enhance your experience and personalize the content and advertising you see.
Visit our Privacy Policy to learn more. By continuing to use the site, you agree to this use of cookies and data.

Stündliche Wetter Alatau

Heute, 6 Juli, Montag

Zeit Temperatur Niederschläge Wind Luftdruck Luftfeuchtigkeit
00:00 +17°C° 0.3 mm 3 m/S 689 mmHg 75%
01:00 +17°C° 0.3 mm 2 m/S 689 mmHg 77%
02:00 +16°C° 0.3 mm 1 m/S 689 mmHg 80%
03:00 +16°C° 0 mm 1 m/S 689 mmHg 78%
04:00 +16°C° 0 mm 1 m/S 689 mmHg 77%
05:00 +16°C° 0 mm 1 m/S 689 mmHg 70%
06:00 +19°C° 0 mm 1 m/S 689 mmHg 65%
07:00 +21°C° 0 mm 1 m/S 690 mmHg 60%
08:00 +22°C° 0 mm 1 m/S 690 mmHg 55%
09:00 +23°C° 0.1 mm 2 m/S 690 mmHg 52%
10:00 +24°C° 0.1 mm 2 m/S 691 mmHg 50%
11:00 +25°C° 0 mm 2 m/S 691 mmHg 50%
12:00 +25°C° 0.6 mm 1 m/S 690 mmHg 51%
13:00 +24°C° 0.6 mm 1 m/S 690 mmHg 52%
14:00 +24°C° 0.6 mm 1 m/S 690 mmHg 52%
15:00 +24°C° 0.7 mm 2 m/S 690 mmHg 55%
16:00 +23°C° 0.7 mm 2 m/S 690 mmHg 58%
17:00 +21°C° 0.7 mm 3 m/S 691 mmHg 61%
18:00 +20°C° 0.2 mm 3 m/S 691 mmHg 62%
19:00 +19°C° 0.2 mm 3 m/S 691 mmHg 63%
20:00 +18°C° 0.2 mm 3 m/S 692 mmHg 65%
21:00 +18°C° 0 mm 3 m/S 692 mmHg 62%
22:00 +17°C° 0 mm 3 m/S 692 mmHg 59%
23:00 +17°C° 0 mm 2 m/S 692 mmHg 57%

Morgen, 7 Juli, Dienstag

Zeit Temperatur Niederschläge Wind Luftdruck Luftfeuchtigkeit
00:00 +16°C° 0 mm 2 m/S 691 mmHg 54%
01:00 +16°C° 0 mm 2 m/S 691 mmHg 52%
02:00 +16°C° 0 mm 2 m/S 691 mmHg 50%
03:00 +17°C° 0 mm 2 m/S 691 mmHg 48%
04:00 +17°C° 0 mm 2 m/S 691 mmHg 46%
05:00 +17°C° 0 mm 2 m/S 691 mmHg 44%
06:00 +19°C° 0 mm 2 m/S 692 mmHg 41%
07:00 +23°C° 0 mm 2 m/S 692 mmHg 39%
08:00 +25°C° 0 mm 2 m/S 693 mmHg 36%
09:00 +27°C° 0 mm 2 m/S 692 mmHg 34%
10:00 +28°C° 0 mm 3 m/S 692 mmHg 32%
11:00 +29°C° 0 mm 3 m/S 692 mmHg 31%
12:00 +30°C° 0 mm 3 m/S 692 mmHg 30%
13:00 +31°C° 0 mm 3 m/S 692 mmHg 29%
14:00 +31°C° 0 mm 3 m/S 692 mmHg 28%
15:00 +31°C° 0 mm 2 m/S 692 mmHg 29%
16:00 +31°C° 0 mm 2 m/S 692 mmHg 30%
17:00 +31°C° 0 mm 2 m/S 692 mmHg 31%
18:00 +28°C° 0 mm 2 m/S 692 mmHg 35%
19:00 +26°C° 0 mm 2 m/S 692 mmHg 39%
20:00 +24°C° 0 mm 2 m/S 691 mmHg 43%
21:00 +23°C° 0 mm 2 m/S 691 mmHg 43%
22:00 +23°C° 0 mm 2 m/S 691 mmHg 42%
23:00 +21°C° 0 mm 2 m/S 691 mmHg 42%

übermorgen, 8 Juli, Mittwoch

Zeit Temperatur Niederschläge Wind Luftdruck Luftfeuchtigkeit
00:00 +21°C° 0 mm 2 m/S 691 mmHg 42%
01:00 +21°C° 0 mm 2 m/S 691 mmHg 42%
02:00 +20°C° 0 mm 2 m/S 690 mmHg 41%
03:00 +20°C° 0 mm 2 m/S 690 mmHg 41%
04:00 +21°C° 0 mm 1 m/S 690 mmHg 41%
05:00 +21°C° 0 mm 1 m/S 690 mmHg 41%
06:00 +24°C° 0 mm 1 m/S 691 mmHg 39%
07:00 +26°C° 0 mm 1 m/S 691 mmHg 36%
08:00 +28°C° 0 mm 1 m/S 691 mmHg 33%
09:00 +30°C° 0 mm 1 m/S 691 mmHg 32%
10:00 +31°C° 0 mm 2 m/S 691 mmHg 30%
11:00 +32°C° 0 mm 2 m/S 692 mmHg 28%
12:00 +34°C° 0.1 mm 2 m/S 691 mmHg 27%
13:00 +35°C° 0.1 mm 2 m/S 691 mmHg 26%
14:00 +36°C° 0.1 mm 2 m/S 691 mmHg 25%
15:00 +36°C° 0 mm 2 m/S 691 mmHg 24%
16:00 +35°C° 0 mm 2 m/S 691 mmHg 24%
17:00 +35°C° 0 mm 2 m/S 691 mmHg 23%
18:00 +31°C° 0 mm 2 m/S 691 mmHg 28%
19:00 +29°C° 0 mm 2 m/S 691 mmHg 33%
20:00 +26°C° 0 mm 3 m/S 690 mmHg 37%
21:00 +25°C° 0 mm 2 m/S 690 mmHg 39%
22:00 +24°C° 0 mm 2 m/S 690 mmHg 42%
23:00 +23°C° 0 mm 2 m/S 690 mmHg 44%

9 Juli, Donnerstag

Zeit Temperatur Niederschläge Wind Luftdruck Luftfeuchtigkeit
00:00 +23°C° 0 mm 2 m/S 690 mmHg 44%
01:00 +21°C° 0 mm 2 m/S 690 mmHg 44%
02:00 +22°C° 0 mm 1 m/S 690 mmHg 43%
03:00 +22°C° 0 mm 1 m/S 690 mmHg 44%
04:00 +22°C° 0 mm 1 m/S 690 mmHg 45%
05:00 +22°C° 0 mm 1 m/S 690 mmHg 46%
06:00 +23°C° 0.1 mm 2 m/S 690 mmHg 45%
07:00 +25°C° 0.1 mm 2 m/S 690 mmHg 44%
08:00 +26°C° 0.1 mm 3 m/S 690 mmHg 43%
09:00 +27°C° 0.2 mm 2 m/S 690 mmHg 41%
10:00 +28°C° 0.2 mm 2 m/S 690 mmHg 39%
11:00 +30°C° 0.2 mm 2 m/S 690 mmHg 37%
12:00 +30°C° 0.3 mm 2 m/S 690 mmHg 36%
13:00 +31°C° 0.3 mm 2 m/S 690 mmHg 34%
14:00 +32°C° 0.3 mm 2 m/S 690 mmHg 33%
15:00 +32°C° 0.1 mm 2 m/S 689 mmHg 32%
16:00 +32°C° 0.1 mm 2 m/S 689 mmHg 32%
17:00 +32°C° 0.1 mm 2 m/S 689 mmHg 32%
18:00 +29°C° 0 mm 2 m/S 689 mmHg 36%
19:00 +27°C° 0 mm 2 m/S 689 mmHg 40%
20:00 +24°C° 0 mm 2 m/S 689 mmHg 45%
21:00 +24°C° 0 mm 2 m/S 689 mmHg 45%
22:00 +23°C° 0 mm 2 m/S 689 mmHg 46%
23:00 +22°C° 0 mm 1 m/S 689 mmHg 47%

10 Juli, Freitag

Zeit Temperatur Niederschläge Wind Luftdruck Luftfeuchtigkeit
00:00 +22°C° 0 mm 1 m/S 688 mmHg 46%
01:00 +21°C° 0 mm 1 m/S 688 mmHg 45%
02:00 +21°C° 0 mm 1 m/S 687 mmHg 45%
03:00 +21°C° 0 mm 1 m/S 687 mmHg 46%
04:00 +21°C° 0 mm 1 m/S 687 mmHg 46%
05:00 +20°C° 0 mm 1 m/S 687 mmHg 47%
06:00 +21°C° 0 mm 2 m/S 688 mmHg 45%
07:00 +25°C° 0 mm 2 m/S 688 mmHg 42%
08:00 +27°C° 0 mm 2 m/S 689 mmHg 39%
09:00 +28°C° 0 mm 2 m/S 688 mmHg 37%
10:00 +29°C° 0 mm 2 m/S 688 mmHg 35%
11:00 +30°C° 0 mm 3 m/S 688 mmHg 34%
12:00 +30°C° 0 mm 3 m/S 688 mmHg 33%
13:00 +31°C° 0 mm 3 m/S 688 mmHg 31%
14:00 +33°C° 0 mm 3 m/S 688 mmHg 30%
15:00 +31°C° 0.1 mm 3 m/S 688 mmHg 32%
16:00 +30°C° 0.1 mm 3 m/S 688 mmHg 34%
17:00 +30°C° 0.1 mm 3 m/S 688 mmHg 35%
18:00 +28°C° 0 mm 3 m/S 688 mmHg 38%
19:00 +26°C° 0 mm 2 m/S 688 mmHg 40%
20:00 +24°C° 0 mm 2 m/S 688 mmHg 42%
21:00 +24°C° 0 mm 2 m/S 688 mmHg 44%
22:00 +23°C° 0 mm 2 m/S 688 mmHg 45%
23:00 +21°C° 0 mm 2 m/S 688 mmHg 46%

11 Juli, Samstag

Zeit Temperatur Niederschläge Wind Luftdruck Luftfeuchtigkeit
00:00 +21°C° 0 mm 2 m/S 688 mmHg 47%
01:00 +20°C° 0 mm 2 m/S 687 mmHg 47%
02:00 +20°C° 0 mm 2 m/S 687 mmHg 48%
03:00 +20°C° 0 mm 2 m/S 687 mmHg 48%
04:00 +20°C° 0 mm 2 m/S 688 mmHg 49%
05:00 +20°C° 0 mm 2 m/S 688 mmHg 49%
06:00 +23°C° 0 mm 2 m/S 688 mmHg 45%
07:00 +25°C° 0 mm 1 m/S 689 mmHg 42%
08:00 +27°C° 0 mm 1 m/S 689 mmHg 38%
09:00 +29°C° 0 mm 2 m/S 689 mmHg 36%
10:00 +30°C° 0 mm 2 m/S 689 mmHg 34%
11:00 +31°C° 0 mm 2 m/S 689 mmHg 32%
12:00 +31°C° 0 mm 3 m/S 689 mmHg 32%
13:00 +31°C° 0 mm 3 m/S 689 mmHg 32%
14:00 +32°C° 0 mm 4 m/S 688 mmHg 32%
15:00 +30°C° 0 mm 3 m/S 689 mmHg 33%
16:00 +30°C° 0 mm 3 m/S 689 mmHg 35%
17:00 +30°C° 0 mm 2 m/S 689 mmHg 36%
18:00 +28°C° 0 mm 2 m/S 689 mmHg 39%
19:00 +27°C° 0 mm 2 m/S 689 mmHg 42%
20:00 +26°C° 0 mm 1 m/S 689 mmHg 44%
21:00 +25°C° 0 mm 1 m/S 689 mmHg 47%
22:00 +24°C° 0 mm 1 m/S 689 mmHg 50%
23:00 +23°C° 0 mm 1 m/S 689 mmHg 53%
Mehr zeigen